Regional Weather Roundup
Issued by NWS

Home | Current Version | Previous Version | Graphics & Text | Print | Product List | Glossary On
Versions: 1 2 3 4 5 6 7 8 9 10 11 12 13 14 15 16 17 18 19 20 21 22 23 24 25 26 27 28 29 30 31 32 33 34 35 36 37 38 39 40 41 42 43 44 45 46 47 48 49 50
000
ASUS43 KBIS 251510
RWRND

NORTH DAKOTA REGIONAL WEATHER ROUNDUP
NATIONAL WEATHER SERVICE BISMARCK ND
900 AM CST TUE NOV 25 2014

NOTE: "FAIR" INDICATES FEW OR NO CLOUDS BELOW 12,000 FEET WITH NO
SIGNIFICANT WEATHER AND/OR OBSTRUCTIONS TO VISIBILITY.


NDZ001>003-009>011-017-251600-
NORTHWEST NORTH DAKOTA

CITY           SKY/WX    TMP DP  RH WIND       PRES   REMARKS
WILLISTON      SNOW      28  25  88 S7        29.71F VSB 1/2
MINOT          CLOUDY    26  21  81 SE12      29.79F WCI  16
MINOT AFB      CLOUDY    25  24  96 SE9       29.79F WCI  16
$$

NDZ018>021-031>035-040>046-251600-
SOUTHWEST NORTH DAKOTA

CITY           SKY/WX    TMP DP  RH WIND       PRES   REMARKS
BISMARCK       CLOUDY    26  22  84 SW3       29.85R
DICKINSON      LGT SNOW  29  27  92 S9        29.72F VSB 1
GARRISON         N/A     29  26  89 S9        29.79F
HETTINGER ARPT LGT SNOW  29  27  92 S7        29.78F VSB 1
$$

NDZ004>008-012>016-024-026-027-054-251600-
NORTHEAST NORTH DAKOTA

CITY           SKY/WX    TMP DP  RH WIND       PRES   REMARKS
GRAND FORKS    CLOUDY    15  10  80 S3        29.95S
GRND FRKS AFB  CLOUDY    17  14  88 CALM      29.94S
DEVILS LAKE    CLOUDY    21  12  68 SE3       29.87S
$$

NDZ022-023-025-028>030-036>039-047>053-251600-
SOUTHEAST NORTH DAKOTA

CITY           SKY/WX    TMP DP  RH WIND       PRES   REMARKS
FARGO          CLOUDY    20  13  74 S6        29.97R WCI  12
JAMESTOWN      CLOUDY    27  21  78 E3        29.88S
$$



USA.gov is the U.S. government's official web portal to all federal, state and local government web resources and services.